Weather in Dudareva

Russia / Tyumen Oblast     57°07′00″N   65°28′02″E
temp.,
°C
wind,
m/s
gust,
m/s
humid.,
%
clouds,
%
prec.,
mm/h
press.,
hPa
HPBL,
m
12 may, wed
wed1223:00+14w24407 0.0 102659
02:00+13wsw38448 0.0 1025133
05:00+13w2843100 0.0 1025179
08:00+16nne4663100 0.0 1026504
11:00+18n453955 0.0 10271013
14:00+21nnw463099 0.0 10261771
17:00+21n473277 0.0 10262014
20:00+18n234697 0.0 102683
13 may, thu
thu1323:00+14wnw225599 0.0 102620
02:00+15wsw3855100 0.0 1025158
05:00+14w412605 0.0 1025303
08:00+19nw485090 0.0 1025494
11:00+24nw58385 0.0 10231818
14:00+26nw59329 0.0 10232597
17:00+24nne683821 0.0 10231238
20:00+21n37475 0.0 1024217
14 may, fri
fri1423:00+17e39545 0.0 1026212
02:00+14se12514 0.0 102717
05:00+13s22555 0.0 102734
08:00+20ssw35475 0.0 1027360
11:00+26sw463467 0.0 10251920
14:00+29w462534 0.0 10232824
17:00+29w472564 0.0 10222893
20:00+24wsw39375 0.0 1021189
15 may, sat
sat1523:00+20wsw38475 0.0 1021121
02:00+18w310525 0.0 1020193
05:00+17wsw3957100 0.0 1021179
08:00+23w494326 0.0 1021450
11:00+27w5934100 0.0 10201858
14:00+30wnw6102491 0.0 10192997
17:00+30wnw5924100 0.0 10183688
20:00+25w38375 0.0 1018164
16 may, sun
sun1623:00+21wsw31047100 0.0 1018218
02:00+19w3105454 0.0 1018189
05:00+17wsw39588 0.0 1019204
08:00+23w474325 0.0 1019390
11:00+29w58275 0.0 10181567
14:00+31w582032 0.0 10172384
17:00+31w57195 0.0 10162977
20:00+26wsw39300 0.0 1016203